Alpine (355, 357, 358, 1458) Station Data

Red Flag Warning: No
Fire Weather Zone: 250
SDGE Region: Eastern
Lat/Lon: 32.827/-116.773

Observations

Time Wind Speed/Gust Temp(F) RH Fuel Moist Fuel Temp(F) Dewpt(F) Tmax(F) Tmin(F) Accum Precip 10-min Precip SL Press(mb)
6/22 4:50am 189 0 G 1 66° 47% - - 45° 69.9° 64° - - -
6/22 4:40am 181 0 G 1 67° 46% - - 46° 69.9° 64° - - -
6/22 4:30am 136 1 G 2 66° 48% - - 46° 69.9° 64° - - -
6/22 4:20am 103 0 G 1 65° 54% - - 48° 69.9° 64° - - -
6/22 4:10am 183 0 G 0 65° 56% - - 49° 69.9° 64° - - -
6/22 4:00am 164 0 G 1 65° 57% - - 50° 69.9° 64° - - -
6/22 3:50am 133 0 G 1 65° 61% - - 51° 69.9° 64° - - -
6/22 3:40am 158 0 G 0 64° 63% - - 51° 69.9° 64° - - -
6/22 3:30am 0 0 G 0 65° 61% - - 51° 69.9° 64.2° - - -
6/22 3:20am 0 0 G 0 65° 60% - - 51° 69.9° 64.4° - - -
6/22 3:10am 0 0 G 0 65° 59% - - 51° 69.9° 64.9° - - -
6/22 3:00am 0 0 G 0 66° 57% - - 51° 69.9° 65.8° - - -
6/22 2:50am 0 0 G 0 66° 59% - - 52° 69.9° 66.1° - - -
6/22 2:40am 161 0 G 1 67° 58% - - 52° 69.9° 66.1° - - -
6/22 2:30am 0 0 G 0 67° 61% - - 53° 69.9° 66.1° - - -
6/22 2:20am 193 0 G 1 67° 63% - - 54° 69.9° 66.1° - - -
6/22 2:10am 194 0 G 1 67° 66% - - 55° 69.9° 66.1° - - -
6/22 2:00am 0 0 G 0 66° 66% - - 55° 69.9° 66.1° - - -
6/22 1:50am 0 0 G 0 67° 65% - - 55° 69.9° 66.6° - - -
6/22 1:40am 0 0 G 0 67° 65% - - 55° 69.9° 66.9° - - -
6/22 1:30am 112 0 G 1 67° 64% - - 55° 69.9° 67.1° - - -
6/22 1:20am 80 0 G 1 67° 64% - - 55° 69.9° 67.1° - - -
6/22 1:10am 0 0 G 0 68° 63% - - 55° 69.9° 67.4° - - -
6/22 1:00am 180 0 G 1 68° 63% - - 55° 69.9° 67.9° - - -
6/22 12:50am 0 0 G 0 69° 62% - - 55° 69.9° 68.4° - - -
6/22 12:40am 183 0 G 1 69° 63% - - 56° 69.9° 68.7° - - -
6/22 12:30am 183 0 G 0 69° 62% - - 56° 69.9° 69° - - -
6/22 12:20am 0 0 G 0 70° 63% - - 56° 69.9° 69.3° - - -
6/22 12:10am 182 0 G 1 70° 64% - - 57° 69.9° 69.3° - - -
6/22 12:00am 177 0 G 1 69° 65% - - 57° 95.9° 68.9° - - -
6/21 11:50pm 42 0 G 0 69° 65% - - 57° 95.9° 68.9° - - -
6/21 11:40pm 0 0 G 0 69° 64% - - 57° 95.9° 69.1° - - -
6/21 11:30pm 0 0 G 0 70° 63% - - 57° 95.9° 69.5° - - -
6/21 11:20pm 0 0 G 0 70° 63% - - 57° 95.9° 69.6° - - -
6/21 11:10pm 0 0 G 0 70° 62% - - 57° 95.9° 69.6° - - -
6/21 11:00pm 180 0 G 1 71° 61% - - 57° 95.9° 69.6° - - -
6/21 10:50pm 165 0 G 1 71° 62% - - 57° 95.9° 69.6° - - -
6/21 10:40pm 0 0 G 0 71° 62% - - 57° 95.9° 69.6° - - -
6/21 10:30pm 0 0 G 0 70° 61% - - 56° 95.9° 69.6° - - -
6/21 10:20pm 115 0 G 1 71° 61% - - 57° 95.9° 69.6° - - -
6/21 10:10pm 97 0 G 1 71° 61% - - 57° 95.9° 69.6° - - -
6/21 10:00pm 107 0 G 1 71° 60% - - 57° 95.9° 69.6° - - -
6/21 9:50pm 0 0 G 0 72° 59% - - 57° 95.9° 69.6° - - -
6/21 9:40pm 0 0 G 0 72° 58% - - 57° 95.9° 69.6° - - -
6/21 9:30pm 0 0 G 0 73° 57% - - 57° 95.9° 69.6° - - -
6/21 9:20pm 0 0 G 0 74° 56% - - 57° 95.9° 69.6° - - -
6/21 9:10pm 0 0 G 0 75° 54% - - 57° 95.9° 69.6° - - -
6/21 9:00pm 0 0 G 0 76° 52% - - 57° 95.9° 69.6° - - -
6/21 8:50pm 261 1 G 2 76° 51% - - 57° 95.9° 69.6° - - -
6/21 8:40pm 232 0 G 2 77° 51% - - 57° 95.9° 69.6° - - -
6/21 8:30pm 173 0 G 1 77° 49% - - 57° 95.9° 69.6° - - -
6/21 8:20pm 32 0 G 1 78° 48% - - 57° 95.9° 69.6° - - -
6/21 8:10pm 339 0 G 1 79° 47% - - 57° 95.9° 69.6° - - -
6/21 8:00pm 320 1 G 2 80° 45% - - 57° 95.9° 69.6° - - -
6/21 7:50pm 306 1 G 3 81° 43% - - 56° 95.9° 69.6° - - -
6/21 7:40pm 302 1 G 3 81° 42% - - 56° 95.9° 69.6° - - -
6/21 7:30pm 295 1 G 3 82° 41% - - 56° 95.9° 69.6° - - -
6/21 7:20pm 299 2 G 4 83° 40% - - 56° 95.9° 69.6° - - -
6/21 7:10pm 310 2 G 4 84° 38% - - 56° 95.9° 69.6° - - -
6/21 7:00pm 303 2 G 5 84° 38% - - 55° 95.9° 69.6° - - -
6/21 6:50pm 321 2 G 5 85° 36% - - 55° 95.9° 69.6° - - -
6/21 6:40pm 301 2 G 7 86° 34% - - 55° 95.9° 69.6° - - -
6/21 6:30pm 303 2 G 6 86° 34% - - 54° 95.9° 69.6° - - -
6/21 6:20pm 312 2 G 4 87° 33% - - 54° 95.9° 69.6° - - -
6/21 6:10pm 328 3 G 6 87° 33% - - 54° 95.9° 69.6° - - -
6/21 6:00pm 313 3 G 9 88° 32% - - 54° 95.9° 69.6° - - -
6/21 5:50pm 309 3 G 7 88° 32% - - 54° 95.9° 69.6° - - -
6/21 5:40pm 299 3 G 7 89° 30% - - 54° 95.9° 69.6° - - -
6/21 5:30pm 308 2 G 5 90° 29% - - 53° 95.9° 69.6° - - -
6/21 5:20pm 298 3 G 7 89° 29% - - 53° 95.9° 69.6° - - -
6/21 5:10pm 294 3 G 7 89° 30% - - 53° 95.9° 69.6° - - -
6/21 5:00pm 274 4 G 9 88° 30% - - 53° 95.9° 69.6° - - -
6/21 4:50pm 277 5 G 10 89° 29% - - 53° 95.9° 69.6° - - -
6/21 4:40pm 284 3 G 8 90° 29% - - 53° 95.9° 69.6° - - -
6/21 4:30pm 274 4 G 9 90° 29% - - 53° 95.9° 69.6° - - -
6/21 4:20pm 267 4 G 8 90° 29% - - 53° 95.9° 69.6° - - -
6/21 4:10pm 275 5 G 10 89° 29% - - 53° 95.9° 69.6° - - -
6/21 4:00pm 290 5 G 9 90° 29% - - 54° 95.9° 69.6° - - -
6/21 3:50pm 282 4 G 9 91° 29% - - 55° 95.9° 69.6° - - -
6/21 3:40pm 286 3 G 8 92° 28% - - 54° 95.9° 69.6° - - -
6/21 3:30pm 280 5 G 10 91° 28% - - 53° 95.9° 69.6° - - -
6/21 3:20pm 290 5 G 11 92° 28% - - 54° 95.9° 69.6° - - -
6/21 3:10pm 264 4 G 10 92° 26% - - 52° 95.9° 69.6° - - -
6/21 3:00pm 272 4 G 8 92° 25% - - 51° 95.9° 69.6° - - -
6/21 2:50pm 283 5 G 9 92° 25% - - 51° 95.9° 69.6° - - -
6/21 2:40pm 280 4 G 9 92° 25% - - 52° 95.9° 69.6° - - -
6/21 2:30pm 298 5 G 10 93° 25% - - 52° 95.9° 69.6° - - -
6/21 2:20pm 285 5 G 9 93° 26% - - 53° 95.9° 69.6° - - -
6/21 2:10pm 269 5 G 11 94° 26% - - 53° 95.9° 69.6° - - -
6/21 2:00pm 264 5 G 10 93° 27% - - 54° 95.9° 69.6° - - -
6/21 1:50pm 260 5 G 10 94° 25% - - 53° 95.9° 69.6° - - -
6/21 1:40pm 278 5 G 11 94° 25% - - 53° 95.9° 69.6° - - -
6/21 1:30pm 265 4 G 8 95° 24% - - 52° 95.9° 69.6° - - -
6/21 1:20pm 295 4 G 11 95° 23% - - 51° 95.9° 69.6° - - -
6/21 1:10pm 272 3 G 7 95° 24% - - 52° 95.9° 69.6° - - -
6/21 1:00pm 272 5 G 10 94° 23% - - 51° 94.8° 69.6° - - -
6/21 12:50pm 275 4 G 9 94° 23% - - 51° 94.8° 69.6° - - -
6/21 12:40pm 285 4 G 8 94° 24% - - 52° 94.8° 69.6° - - -
6/21 12:30pm 285 3 G 7 93° 26% - - 53° 94° 69.6° - - -
6/21 12:20pm 275 4 G 12 93° 26% - - 53° 94° 69.6° - - -
6/21 12:10pm 279 4 G 8 93° 25% - - 52° 94° 69.6° - - -
6/21 12:00pm 280 5 G 9 93° 25% - - 52° 94° 69.6° - - -
6/21 11:50am 282 4 G 8 93° 24% - - 51° 94° 69.6° - - -
6/21 11:40am 294 4 G 7 93° 24% - - 51° 94° 69.6° - - -
6/21 11:30am 308 3 G 9 93° 24% - - 51° 94° 69.6° - - -
6/21 11:20am 299 4 G 8 92° 24% - - 50° 93.1° 69.6° - - -
6/21 11:10am 288 4 G 9 92° 22% - - 48° 92.6° 69.6° - - -
6/21 11:00am 282 4 G 8 92° 22% - - 48° 92.6° 69.6° - - -
6/21 10:50am 290 3 G 8 92° 22% - - 47° 92.6° 69.6° - - -
6/21 10:40am 310 2 G 5 92° 21% - - 47° 92.6° 69.6° - - -
6/21 10:30am 288 3 G 5 91° 22% - - 46° 91.5° 69.6° - - -
6/21 10:20am 309 3 G 6 90° 24% - - 48° 91.1° 69.6° - - -
6/21 10:10am 290 4 G 6 90° 24% - - 48° 90.3° 69.6° - - -
6/21 10:00am 304 3 G 6 89° 23% - - 47° 90.1° 69.6° - - -
6/21 9:50am 296 3 G 5 89° 24% - - 47° 89.8° 69.6° - - -
6/21 9:40am 303 2 G 5 89° 24% - - 47° 89.8° 69.6° - - -
6/21 9:30am 286 3 G 5 88° 24% - - 47° 89.8° 69.6° - - -
6/21 9:20am 281 2 G 5 89° 23% - - 46° 89.8° 69.6° - - -
6/21 9:10am 286 1 G 3 88° 23% - - 46° 89° 69.6° - - -
6/21 9:00am 358 2 G 4 88° 24% - - 46° 88.2° 69.6° - - -
6/21 8:50am 343 1 G 3 88° 24% - - 47° 88.1° 69.6° - - -
6/21 8:40am 341 1 G 3 87° 25% - - 47° 87.1° 69.6° - - -
6/21 8:30am 268 1 G 2 86° 24% - - 45° 86.9° 69.6° - - -
6/21 8:20am 298 1 G 3 86° 25% - - 46° 86.9° 69.6° - - -
6/21 8:10am 316 1 G 2 86° 21% - - 42° 86.9° 69.6° - - -
6/21 8:00am 311 0 G 1 86° 24% - - 45° 86.5° 69.6° - - -
6/21 7:50am 30 0 G 1 84° 28% - - 48° 85.1° 69.6° - - -
6/21 7:40am 355 0 G 1 83° 30% - - 48° 84.1° 69.6° - - -
6/21 7:30am 61 0 G 1 83° 28% - - 46° 83.9° 69.6° - - -
6/21 7:20am 70 0 G 1 81° 28% - - 45° 82.3° 69.6° - - -
6/21 7:10am 352 0 G 0 78° 29% - - 44° 79.3° 69.6° - - -
6/21 7:00am 0 0 G 0 78° 28% - - 43° 78.6° 69.6° - - -
6/21 6:50am 0 0 G 0 77° 29% - - 42° 78.2° 69.6° - - -
6/21 6:40am 0 0 G 0 74° 31% - - 42° 75.5° 69.6° - - -
6/21 6:30am 0 0 G 0 72° 34% - - 42° 74.4° 69.6° - - -
6/21 6:20am 180 0 G 1 70° 36% - - 42° 74.4° 69.6° - - -
6/21 6:10am 0 0 G 0 70° 36% - - 42° 74.4° 69.6° - - -
6/21 6:00am 191 0 G 1 70° 36% - - 42° 74.4° 69.6° - - -
6/21 5:50am 170 0 G 1 71° 36% - - 43° 74.4° 69.6° - - -
6/21 5:40am 155 0 G 1 71° 37% - - 44° 74.4° 69.6° - - -
6/21 5:30am 128 0 G 1 70° 41% - - 45° 74.4° 69.6° - - -
6/21 5:20am 0 0 G 0 70° 41% - - 46° 74.4° 69.8° - - -
6/21 5:10am 209 0 G 1 71° 40% - - 45° 74.4° 69.9° - - -
6/21 5:00am 128 0 G 1 71° 40% - - 46° 74.4° 69.9° - - -
6/21 4:50am 62 0 G 1 71° 41% - - 46° 74.4° 69.9° - - -
6/21 4:40am 0 0 G 0 71° 43% - - 47° 74.4° 69.9° - - -
6/21 4:30am 178 0 G 0 70° 43% - - 47° 74.4° 69.9° - - -
6/21 4:20am 0 0 G 0 70° 44% - - 47° 74.4° 69.9° - - -
6/21 4:10am 187 0 G 1 70° 44% - - 47° 74.4° 69.9° - - -
6/21 4:00am 188 0 G 1 70° 45% - - 48° 74.4° 69.9° - - -
6/21 3:50am 0 0 G 0 70° 44% - - 47° 74.4° 69.9° - - -
6/21 3:40am 190 0 G 0 70° 44% - - 47° 74.4° 69.9° - - -
6/21 3:30am 0 0 G 0 70° 43% - - 47° 74.4° 70.1° - - -
6/21 3:20am 0 0 G 0 71° 42% - - 47° 74.4° 70.8° - - -
6/21 3:10am 0 0 G 0 71° 42% - - 47° 74.4° 71.2° - - -
6/21 3:00am 191 0 G 1 72° 41% - - 47° 74.4° 71.5° - - -
6/21 2:50am 198 0 G 0 72° 40% - - 47° 74.4° 71.6° - - -
6/21 2:40am 0 0 G 0 72° 40% - - 46° 74.4° 71.6° - - -
6/21 2:30am 0 0 G 0 72° 39% - - 46° 74.4° 71.6° - - -
6/21 2:20am 0 0 G 0 72° 39% - - 46° 74.4° 71.7° - - -
6/21 2:10am 61 0 G 1 72° 38% - - 45° 74.4° 71.7° - - -
6/21 2:00am 0 0 G 0 73° 38% - - 45° 74.4° 72.3° - - -
6/21 1:50am 0 0 G 0 73° 38% - - 45° 74.4° 72.6° - - -
6/21 1:40am 180 0 G 1 73° 39% - - 47° 74.4° 72.6° - - -
6/21 1:30am 0 0 G 0 73° 38% - - 46° 74.4° 72.9° - - -
6/21 1:20am 173 0 G 1 73° 38% - - 46° 74.4° 73.2° - - -
6/21 1:10am 81 0 G 1 74° 38% - - 47° 74.4° 73.2° - - -
6/21 1:00am 194 0 G 1 74° 39% - - 47° 74.4° 73.2° - - -
6/21 12:50am 169 0 G 2 74° 40% - - 48° 74.4° 73.2° - - -
6/21 12:40am 0 0 G 0 74° 42% - - 49° 74.4° 73.3° - - -
6/21 12:30am 0 0 G 0 74° 42% - - 49° 74.4° 73.5° - - -
6/21 12:20am 0 0 G 0 74° 42% - - 49° 74.4° 73.6° - - -
6/21 12:10am 118 0 G 1 74° 42% - - 50° 74.4° 73.6° - - -
6/21 12:00am 198 0 G 1 74° 43% - - 50° 98.8° 68.9° - - -
6/20 11:50pm 173 0 G 1 74° 43% - - 51° 98.8° 68.9° - - -
6/20 11:40pm 0 0 G 0 75° 43% - - 51° 98.8° 68.9° - - -
6/20 11:30pm 72 0 G 1 74° 44% - - 51° 98.8° 68.9° - - -
6/20 11:20pm 186 0 G 1 74° 45% - - 52° 98.8° 68.9° - - -
6/20 11:10pm 0 0 G 0 75° 45% - - 52° 98.8° 68.9° - - -
6/20 11:00pm 86 0 G 1 75° 44% - - 52° 98.8° 68.9° - - -
6/20 10:50pm 200 0 G 1 76° 43% - - 52° 98.8° 68.9° - - -
6/20 10:40pm 183 0 G 1 76° 43% - - 52° 98.8° 68.9° - - -
6/20 10:30pm 0 0 G 0 77° 43% - - 52° 98.8° 68.9° - - -
6/20 10:20pm 168 1 G 1 77° 43% - - 53° 98.8° 68.9° - - -
6/20 10:10pm 159 0 G 1 76° 45% - - 53° 98.8° 68.9° - - -
6/20 10:00pm 40 0 G 1 76° 44% - - 53° 98.8° 68.9° - - -
6/20 9:50pm 0 0 G 0 77° 43% - - 53° 98.8° 68.9° - - -
6/20 9:40pm 158 0 G 1 78° 42% - - 53° 98.8° 68.9° - - -
6/20 9:30pm 168 0 G 1 78° 42% - - 53° 98.8° 68.9° - - -
6/20 9:20pm 0 0 G 0 79° 40% - - 53° 98.8° 68.9° - - -
6/20 9:10pm 138 0 G 1 78° 41% - - 52° 98.8° 68.9° - - -
6/20 9:00pm 0 0 G 0 79° 39% - - 52° 98.8° 68.9° - - -
6/20 8:50pm 0 0 G 0 80° 37% - - 51° 98.8° 68.9° - - -
6/20 8:40pm 141 0 G 1 81° 35% - - 51° 98.8° 68.9° - - -
6/20 8:30pm 143 0 G 1 82° 34% - - 51° 98.8° 68.9° - - -
6/20 8:20pm 162 0 G 1 83° 33% - - 51° 98.8° 68.9° - - -
6/20 8:10pm 0 0 G 0 84° 32% - - 51° 98.8° 68.9° - - -
6/20 8:00pm 347 0 G 1 85° 31% - - 51° 98.8° 68.9° - - -
6/20 7:50pm 331 1 G 2 86° 30% - - 51° 98.8° 68.9° - - -
6/20 7:40pm 320 1 G 2 87° 28% - - 51° 98.8° 68.9° - - -
6/20 7:30pm 300 1 G 3 88° 28% - - 51° 98.8° 68.9° - - -
6/20 7:20pm 309 2 G 4 89° 28% - - 51° 98.8° 68.9° - - -
6/20 7:10pm 322 1 G 4 89° 28% - - 51° 98.8° 68.9° - - -
6/20 7:00pm 309 2 G 3 89° 27% - - 51° 98.8° 68.9° - - -
6/20 6:50pm 262 2 G 4 89° 27% - - 51° 98.8° 68.9° - - -
6/20 6:40pm 251 2 G 4 90° 27% - - 51° 98.8° 68.9° - - -
6/20 6:30pm 248 2 G 6 90° 27% - - 51° 98.8° 68.9° - - -
6/20 6:20pm 261 3 G 6 90° 27% - - 51° 98.8° 68.9° - - -
6/20 6:10pm 255 3 G 5 91° 25% - - 50° 98.8° 68.9° - - -
6/20 6:00pm 250 3 G 7 91° 25% - - 50° 98.8° 68.9° - - -